Helicity
80 90 175 202 93 77 85 86 99 94 83 81 78 70 66 60 42 52 42 48 66 67 80 93 90 82 93 101 110 123 137 140 153 180 182 181 194 204 212 214 172 110 93
117 128 211 180 70 66 72 83 80 79 73 55 50 42 39 30 27 22 33 43 58 78 92 111 120 134 161 157 156 147 142 143 162 178 184 164 163 148 124 125 126 123 157
81 61 121 65 83 71 71 73 74 59 48 34 24 24 17 9 7 24 19 45 46 68 89 102 114 123 147 158 144 135 121 118 144 157 195 197 146 157 189 167 127 86 102
118 141 101 110 84 63 56 51 43 37 25 25 17 10 -3 -0 16 2 19 31 51 55 74 83 83 113 156 166 148 130 102 94 103 122 131 151 152 138 110 172 202 243 267
52 18 14 42 52 50 39 33 26 21 18 21 10 -3 -5 8 6 3 -0 28 31 55 66 63 39 47 94 105 112 102 92 83 94 104 107 117 131 112 136 102 112 123 138
33 9 3 -10 -21 -26 -4 7 11 11 20 24 12 3 -2 2 2 -0 -2 25 35 61 68 60 64 47 41 53 64 63 62 62 74 84 89 107 124 125 127 133 124 114 104
57 35 17 -29 -49 -41 -38 -21 -2 8 25 29 22 18 7 2 -2 -0 18 21 44 55 67 81 54 67 72 60 64 59 57 51 51 55 70 80 87 92 93 97 98 108 100
38 35 6 -15 -35 -48 -44 -28 -4 11 30 42 37 31 16 18 15 6 34 26 41 45 42 64 64 54 71 99 102 88 80 83 82 70 76 85 89 91 94 108 106 84 102
22 26 16 14 22 3 -10 -43 -58 23 75 69 51 37 29 19 22 23 30 34 22 46 63 85 76 89 86 87 90 114 97 92 87 80 81 96 100 98 101 101 99 111 125
29 33 33 37 50 60 27 -12 -11 32 66 81 49 39 38 33 29 31 30 33 32 30 53 69 70 88 99 104 110 116 105 115 127 123 97 83 93 96 102 95 93 112 148
6 14 29 45 39 27 18 5 28 45 60 69 56 46 46 45 34 23 21 25 30 29 31 46 52 60 70 85 99 109 105 113 124 128 124 75 54 76 87 87 95 109 115
14 5 3 15 18 30 36 43 59 75 80 89 74 59 52 41 24 22 17 21 25 29 26 25 31 43 55 66 72 83 98 100 91 107 139 96 77 60 61 83 75 66 67
26 -2 -13 8 9 16 24 41 62 85 103 106 81 69 58 53 34 21 26 24 27 28 34 40 46 52 56 57 65 93 83 84 86 84 116 109 84 67 65 65 69 48 40
53 45 24 6 9 -8 5 5 37 71 77 98 82 72 69 65 54 38 32 38 35 35 43 52 53 56 59 65 69 80 67 68 70 67 78 100 92 73 72 76 70 33 9
22 45 16 40 45 47 52 47 68 75 100 100 90 81 78 70 57 48 44 43 44 46 47 49 50 56 65 79 121 78 63 51 37 48 63 67 80 53 39 59 52 39 10
13 17 17 22 40 56 63 56 64 88 108 118 110 96 96 83 74 63 54 51 50 49 53 51 52 53 62 83 69 64 64 55 45 35 39 80 72 43 35 30 41 40 21
24 37 24 24 32 50 65 75 66 91 121 121 136 119 115 104 97 87 79 66 62 57 54 54 54 53 55 62 54 42 47 54 72 62 68 78 96 54 6 -6 -5 18 85
50 32 34 31 43 36 45 76 80 96 109 117 122 113 119 117 113 105 95 86 83 74 72 67 66 64 57 59 57 47 41 52 53 76 75 64 80 100 44 -33 -5 24 77
29 27 30 33 32 33 35 43 89 98 108 108 115 110 122 121 120 116 102 98 94 85 83 80 80 71 70 59 51 53 46 41 48 58 73 73 68 82 87 62 12 12 105
27 25 23 30 34 40 48 52 79 78 113 118 115 105 150 154 142 128 117 114 100 85 84 86 79 53 49 39 43 50 46 38 45 42 53 64 75 74 95 89 104 91 87
16 13 6 14 31 57 69 69 77 101 102 113 129 152 182 177 161 144 143 134 116 108 91 76 70 58 49 28 30 34 46 42 45 49 50 57 75 70 83 96 87 123 117
30 20 15 31 44 49 57 62 79 102 88 82 109 115 147 168 169 156 156 148 131 115 100 82 83 72 65 34 27 33 33 45 49 50 56 54 63 75 83 104 116 101 112
35 29 28 38 47 43 59 86 92 70 73 79 87 82 86 115 154 145 137 147 148 184 201 197 169 102 97 68 22 17 18 19 48 62 60 52 49 62 61 83 107 120 110
86 64 60 52 70 79 71 55 78 78 75 80 83 97 116 125 143 180 195 202 195 170 151 124 98 103 109 96 112 81 60 35 28 40 56 57 53 49 60 72 95 106 102
66 53 34 37 45 54 78 64 50 52 87 88 99 110 121 121 122 160 197 200 187 201 194 168 160 152 129 98 86 74 75 83 98 79 52 42 56 76 87 101 89 101 116
66 58 36 28 27 30 15 20 1 21 50 90 96 134 140 138 151 141 134 112 114 157 145 138 185 201 145 126 109 86 87 70 79 102 83 80 55 55 75 83 98 101 122
Wind_Speed
80 73 60 51 52 50 47 47 48 49 52 54 58 58 58 60 58 59 61 60 64 66 67 66 66 66 68 69 70 72 76 74 70 78 79 81 81 84 83 80 78 77 76
76 70 60 56 52 51 47 47 48 48 50 51 53 54 57 55 59 57 57 62 63 66 67 68 68 67 69 70 68 70 72 72 69 73 76 86 80 74 72 76 80 85 80
75 63 51 51 50 49 47 47 48 49 48 49 52 54 54 55 56 57 59 58 61 65 65 66 66 63 62 63 61 60 62 64 61 60 59 71 74 71 65 67 69 71 74
55 41 35 34 41 46 45 46 47 47 46 48 51 54 57 59 58 55 56 60 59 60 60 60 62 60 54 60 58 57 57 56 59 56 55 60 70 84 89 77 81 79 78
42 36 32 31 38 46 47 47 46 45 44 46 50 53 54 51 54 56 57 57 53 57 61 59 56 53 50 44 39 48 51 53 54 53 56 59 60 60 69 91 75 71 78
28 23 13 38 39 43 48 47 43 45 44 46 47 48 52 54 55 54 55 54 51 52 53 56 54 47 43 45 42 33 31 32 38 43 47 50 53 57 64 70 70 72 74
17 17 25 34 42 46 49 52 50 48 44 45 50 50 49 50 52 56 55 53 45 45 37 44 34 34 36 29 28 28 34 36 37 41 44 45 47 51 59 67 73 78 75
11 15 29 40 44 47 51 54 53 52 49 44 45 46 44 48 53 55 54 51 46 44 44 43 34 23 25 23 19 20 24 31 35 38 38 44 45 52 54 60 68 83 83
9 12 32 37 35 41 54 51 32 4 33 36 42 43 43 47 52 54 51 46 42 40 41 42 39 37 34 28 28 25 20 19 28 36 38 43 46 39 40 48 54 65 82
11 15 21 28 30 34 39 42 15 7 22 32 34 39 42 46 51 53 50 47 46 42 38 38 37 33 31 28 30 28 26 28 24 21 23 39 45 43 44 46 49 50 61
22 18 23 25 26 28 26 24 8 15 22 26 30 34 39 42 46 53 53 52 47 44 41 41 38 35 34 37 39 37 33 29 31 32 31 23 24 32 39 37 41 45 52
21 31 30 25 15 7 21 25 19 18 23 28 32 37 39 38 36 45 54 54 52 48 50 50 48 46 45 44 43 42 43 44 46 45 44 42 31 30 30 33 35 35 33
19 13 12 10 8 9 16 20 19 22 27 29 33 37 37 36 31 34 48 52 53 54 53 53 53 52 50 50 48 45 48 47 46 47 44 37 34 31 28 30 34 35 28
41 41 35 20 10 5 11 6 13 14 8 10 11 17 26 31 31 28 30 41 49 55 56 55 54 52 53 53 50 51 52 48 45 49 45 36 30 28 28 25 26 25 25
75 73 79 69 42 33 34 35 31 27 24 23 22 23 24 25 27 31 35 37 40 47 53 53 52 52 52 51 54 56 55 53 42 44 46 40 33 24 24 23 21 21 21
78 82 84 83 74 61 57 52 47 40 36 35 33 33 34 35 35 35 37 40 44 44 48 50 53 54 53 55 56 57 58 59 41 33 26 25 26 24 21 20 18 16 16
87 92 88 85 78 70 64 61 56 48 44 43 41 41 42 43 42 43 45 48 49 51 51 52 52 53 54 53 58 64 63 60 53 59 49 46 25 15 24 28 22 17 16
97 95 89 86 79 77 72 64 60 54 51 51 49 49 48 48 49 50 51 52 53 56 57 57 57 58 57 56 61 63 64 61 58 54 57 62 53 41 44 29 23 23 23
93 91 87 83 80 78 75 69 64 61 57 56 56 54 52 53 54 54 55 55 58 58 59 59 60 61 62 62 63 64 63 64 62 58 57 58 59 59 59 48 33 22 22
85 86 83 79 75 73 71 69 64 62 57 56 55 54 51 50 49 48 51 56 60 62 62 62 62 63 65 62 62 66 65 65 64 61 58 57 61 65 64 59 53 43 30
85 82 79 77 74 73 68 65 63 60 58 55 54 53 50 48 48 49 48 49 51 53 54 58 59 62 61 65 65 66 65 65 68 66 64 61 64 63 64 60 57 53 45
78 76 76 76 73 69 66 68 69 66 62 60 62 60 54 50 48 48 48 48 50 53 55 58 61 60 58 57 58 60 65 65 64 66 65 66 67 65 62 59 59 58 53
74 73 74 74 72 70 66 70 71 68 66 63 62 60 57 54 52 53 55 55 54 57 59 59 62 61 58 62 63 64 65 65 66 62 64 66 64 62 61 60 59 56 54
77 76 77 78 78 76 75 74 72 68 65 63 61 59 57 54 51 49 50 53 56 59 62 63 64 63 58 56 57 59 60 60 62 62 63 63 66 63 57 60 57 54 53
81 79 81 81 83 81 80 78 77 71 67 64 63 62 59 56 54 51 50 51 51 52 58 60 61 65 66 63 59 62 61 59 62 68 67 65 64 64 63 57 55 55 53
82 83 86 88 88 86 85 81 82 78 73 71 67 65 62 58 55 58 59 50 52 53 52 53 56 56 54 56 57 59 62 65 66 66 65 64 62 61 58 56 55 53 53
Wind_Direction
300 294 287 287 290 293 298 303 308 314 318 320 320 321 322 325 326 326 326 326 324 322 320 317 314 312 309 306 304 301 297 294 293 291 290 289 288 286 286 286 285 282 281
308 297 288 283 283 288 294 300 306 314 319 322 325 326 326 328 327 328 329 327 327 326 324 320 316 313 310 307 306 303 301 297 295 291 293 291 292 290 287 284 283 282 282
312 298 290 282 281 286 293 299 306 312 320 325 327 328 329 329 328 328 329 332 332 331 330 326 321 318 315 313 311 308 305 303 301 296 295 296 293 299 299 295 290 285 284
334 322 310 302 292 291 297 302 308 314 321 327 329 329 327 325 327 331 332 334 337 338 339 336 330 325 324 316 314 311 308 307 304 303 299 296 297 295 295 294 292 293 293
18 356 332 321 306 296 299 302 309 316 324 329 329 328 329 332 329 329 333 339 344 343 342 345 345 342 339 335 333 323 316 311 309 308 307 303 303 302 299 294 299 297 293
69 95 337 279 300 297 291 303 316 317 322 327 332 333 329 327 329 333 335 343 345 348 351 351 356 358 354 346 346 347 342 334 325 320 316 313 311 309 307 305 305 303 300
101 156 199 241 268 275 272 284 304 315 325 329 328 332 331 331 331 329 333 343 350 352 7 4 16 16 12 12 6 0 349 343 336 329 323 319 316 315 311 307 306 304 305
117 186 232 257 267 276 285 295 310 313 320 332 337 337 335 331 326 325 332 339 345 347 352 359 9 21 21 22 21 14 4 351 341 334 330 324 321 317 316 312 311 306 306
76 213 244 248 239 251 282 265 235 224 342 341 337 339 336 330 325 326 332 342 348 349 350 353 357 1 7 12 9 7 6 360 350 341 335 327 324 326 324 320 317 314 310
267 246 244 244 240 242 249 250 234 342 351 345 344 342 338 332 325 325 331 338 343 349 352 353 355 359 3 6 4 360 358 353 349 346 341 335 330 328 325 323 320 318 314
278 266 257 252 249 247 246 245 337 350 349 349 348 347 343 339 332 323 323 330 339 346 350 348 351 354 355 353 353 353 354 351 347 343 340 332 335 334 329 328 326 322 320
283 276 269 260 255 327 3 5 2 355 351 350 347 345 344 344 344 332 321 325 330 337 337 337 340 343 344 345 345 345 345 343 341 340 337 334 339 339 338 335 332 328 323
7 345 314 330 332 355 9 7 3 356 351 348 344 343 345 347 350 344 330 325 327 327 330 332 334 337 340 340 342 343 340 339 337 336 334 333 332 333 336 337 336 335 328
8 11 10 8 1 339 4 344 360 359 3 3 353 349 348 348 349 350 345 335 328 325 326 329 331 335 336 336 338 340 340 340 339 335 335 332 329 328 333 336 337 337 334
335 339 324 344 356 358 357 355 353 352 351 348 346 345 347 348 348 345 342 340 336 331 327 329 332 333 334 337 336 335 337 337 339 337 335 334 326 321 324 327 330 338 340
329 322 318 322 328 333 334 339 341 342 341 339 337 337 337 337 337 339 339 338 335 334 332 331 330 331 333 333 334 334 334 334 342 340 335 333 327 321 321 324 329 324 328
321 320 320 319 323 326 326 327 330 333 332 331 332 331 329 328 329 329 329 328 328 328 329 329 330 331 331 334 333 327 327 331 337 336 342 343 343 325 337 335 330 322 337
319 318 320 319 321 321 322 323 324 324 325 324 324 324 323 322 323 323 324 324 324 323 323 323 325 325 327 330 330 329 325 328 331 335 335 335 339 341 336 337 327 333 340
322 321 320 321 320 321 322 320 321 321 320 320 319 319 318 317 317 317 318 319 320 320 321 322 322 322 322 323 325 326 325 322 325 329 331 333 334 331 330 334 336 329 331
325 325 326 325 324 324 326 324 323 323 322 322 321 320 319 316 316 316 316 315 314 314 316 317 316 317 317 320 321 321 321 320 321 323 325 328 328 328 327 329 331 334 339
324 326 328 327 327 329 329 328 328 327 327 326 325 323 320 317 315 316 316 316 317 317 318 318 318 316 316 314 315 317 318 316 315 316 319 322 323 325 327 329 330 330 334
331 333 333 334 333 333 333 330 328 329 328 326 325 323 321 318 317 315 315 316 316 316 317 317 316 317 317 318 319 319 317 317 315 313 313 314 316 320 323 326 326 327 328
335 338 339 340 341 339 336 331 328 329 328 324 324 324 323 320 317 316 315 315 316 316 317 318 318 318 319 317 314 313 315 315 313 314 312 313 315 317 316 320 324 325 325
333 336 337 334 335 337 336 334 333 331 328 327 325 324 324 320 317 316 314 313 312 311 312 313 314 316 320 322 321 318 319 319 315 313 314 313 311 313 317 315 317 322 322
330 333 330 331 331 333 333 334 334 333 329 325 324 323 321 320 318 314 313 312 312 311 311 311 313 314 315 318 318 318 319 321 319 315 312 310 310 309 310 315 315 316 318
330 330 329 329 331 331 330 329 331 329 326 322 321 320 318 317 315 313 312 308 307 310 307 308 312 316 317 319 321 320 318 315 313 313 312 312 312 312 313 313 313 314 315